SXM-8 (48838 NORAD) Tracking and Keplerian Element Data

This shows tracking and keplerian element data for the satellite.

Feedback or suggestion? Click here.




ElementValue
Catalog48838
NameSXM-8
Epoch Orbit33
Epoch Day170.55148595
Epoch Year2021
RAAN267.0191
Inclination0.0646
Eccentricity0.0002417
Argument of Perigee265.3158
Mean Anonmoly173.659
Mean Motion1.00409447
Decay Rate-2E-08
L11 48838U 21049A 21170.55148595 -.00000002 00000-0 00000-0 0 9993
L22 48838 0.0646 267.0191 0002417 265.3158 173.6590 1.00409447 335

Live tracking and technical data element details for SXM-8 (NORAD 48838). SXM-8 can be tracked NOW for your location showing map with azimuth and elevation plus other details from your city location.

Track the satellite on the map from your city or location and see movement details for azimuth, elevation, latitude, longitude, range, height, and movement on the map or in text.







IsCatalogInMostPopularTable: catalog: 48838, numindb: 2
Update: records affected: 1



GetName: 48838 SXM-8

Hit Count: updated at: Mon, 21 Jun 2021 04:59:16 GMT